Regional Weather Roundup
Issued by NWS

Home | Current Version | Previous Version | Graphics & Text | Print | Product List | Glossary Off
Versions: 1 2 3 4 5 6 7 8 9 10 11 12 13 14 15 16 17 18 19 20 21 22 23 24 25 26 27 28 29 30 31 32 33 34 35 36 37 38 39 40 41 42 43 44 45 46 47 48 49

000
ASUS43 KDMX 280807
RWRIA

WEATHER ROUNDUP FOR IOWA
NATIONAL WEATHER SERVICE DES MOINES IA
300 AM CDT THU MAY 28 2015

NOTE: "FAIR" INDICATES FEW OR NO CLOUDS BELOW 12,000 FEET WITH NO
SIGNIFICANT WEATHER AND/OR OBSTRUCTIONS TO VISIBILITY.

* - THESE STATIONS ARE NOT NWS STATIONS...THUS NOT UNDER NWS
QUALITY CONTROL.  THEY ALSO DO NOT REPORT WEATHER SUCH
AS PRECIPITATION OR FOG.

IAZ001>003-012>014-020>022-031>034-043>046-280900-
   NORTHWEST IOWA

CITY           SKY/WX    TMP DP  RH WIND       PRES   REMARKS
CARROLL *      PTCLDY    61  55  82 S8        30.08F
CHEROKEE *     CLEAR     55  55 100 CALM      30.07S
DENISON *      CLEAR     63  54  72 CALM      30.06F
LE MARS *      CLEAR     63  52  67 SE5       30.06S
ORANGE CITY *  CLEAR     61  52  72 S5        30.06S
SHELDON *      CLEAR     59  52  77 S5        30.05S
SIOUX CITY     PTCLDY    60  52  74 E9        30.04F
SPENCER        CLEAR     59  53  80 S6        30.07S
STORM LAKE *   CLEAR     59  52  77 S8        30.09S
$$

IAZ055>058-069>071-079>083-090>094-280900-
   SOUTHWEST IOWA

CITY           SKY/WX    TMP DP  RH WIND       PRES   REMARKS
ATLANTIC *     PTCLDY    57  57 100 CALM      30.09F
AUDUBON *      CLEAR     55  52  88 CALM      30.11F
CLARINDA *     CLEAR     59  57  94 CALM      30.10F
COUNCIL BLFS * CLEAR     63  55  77 SE6       30.08S
CRESTON *      CLEAR     63  55  77 SE7       30.11F
HARLAN  *      CLEAR     57  57 100 CALM      30.12F
LAMONI         CLEAR     67  56  67 SE8       30.12F
RED OAK *      CLEAR     57  55  94 CALM      30.09F
SHENANDOAH *   CLEAR     63  57  82 SE7       30.08F
$$

IAZ047>049-059>061-072>074-084-280900-
   CENTRAL IOWA

CITY           SKY/WX    TMP DP  RH WIND       PRES   REMARKS
AMES           CLEAR     59  57  93 SE5       30.11R
ANKENY *       CLEAR     61  59  94 CALM      30.11R
CHARITON *       N/A     63  57  82 S7        30.13S
DES MOINES     CLEAR     65  57  75 S7        30.11R
GRINNELL*      CLEAR     63  57  82 S8        30.13S
KNOXVILLE *    CLEAR     63  57  82 S7        30.11S
MARSHALLTOWN   CLEAR     63  56  78 S6        30.11R
PELLA *        CLEAR     61  59  94 SE3       30.14R
PERRY *          N/A     59  57  94 SE8       30.10R
$$

IAZ004>006-015-016-023>025-035-036-280900-
   NORTH CENTRAL IOWA

CITY           SKY/WX    TMP DP  RH WIND       PRES   REMARKS
ALGONA *       CLEAR     61  57  88 S10       30.08S
CLARION *      CLEAR     63 N/A N/A S9        30.09S
ESTHERVILLE    CLEAR     58  53  84 S7        30.06F
FORT DODGE *   PTCLDY    63  54  72 CALM      30.10R
MASON CITY     CLEAR     59  55  87 S7        30.10S
FOREST CITY *  CLEAR     55  54  94 CALM      30.09S
IOWA FALLS *     N/A     61  57  88 S8        30.12R
$$

IAZ007>011-017>019-026>030-037>042-050>054-066-280900-
   NORTHEAST IOWA

CITY           SKY/WX    TMP DP  RH WIND       PRES   REMARKS
CEDAR RAPIDS   CLEAR     61  57  87 S5        30.12S
CHARLES CITY * CLEAR     61  59  94 S7        30.10F
CLINTON *      CLEAR     61  55  82 S7        30.16S
DECORAH *      PTCLDY    64  57  77 S3        30.09F
DUBUQUE        CLEAR     60  55  83 SW7       30.13F
MONTICELLO *   CLEAR     61  59  94 CALM      30.12F
OELWEIN *      CLEAR     61  57  88 S7        30.12S
WATERLOO       CLEAR     63  56  78 S6        30.10S
$$

IAZ064-065-067-068-078-280900-
   EAST CENTRAL IOWA

CITY           SKY/WX    TMP DP  RH WIND       PRES   REMARKS
DAVENPORT      CLEAR     61  56  83 S6        30.14S
IOWA CITY      CLEAR     60  58  92 CALM      30.14S
MT. PLEASANT * CLEAR     61  57  88 S3        30.14F
MUSCATINE *    CLEAR     61  59  94 CALM      30.14S
QUAD CITIES    PTCLDY    62  55  77 CALM      30.14S
$$

IAZ062-063-075>077-085>089-095>099-280900-
   SOUTHEAST IOWA

CITY           SKY/WX    TMP DP  RH WIND       PRES   REMARKS
BURLINGTON     PTCLDY    62  58  86 CALM      30.14S
FAIRFIELD *    CLEAR     64  55  72 S6        30.14S
FORT MADISON *   N/A     63  57  82 S6        30.15F
KEOKUK *       CLEAR     63  59  88 CALM      30.13F
OSKALOOSA *      N/A     59  55  88 S6        30.14R
CENTERVILLE *  CLEAR     59  59 100 SE7       30.15S
OTTUMWA        PTCLDY    62  56  80 S7        30.13S
WASHINGTON *   CLEAR     63  57  82 S7        30.15S HAZE
$$

ABBREVIATIONS USED IN REMARKS
   TC - TEMPERATURES IN CELSIUS
  WCI - WIND CHILL INDEX
   HX - HEAT INDEX
  VSB - VISIBILITY
$$




USA.gov is the U.S. government's official web portal to all federal, state and local government web resources and services.